Regional Weather Roundup
Issued by NWS

Home | Current Version | Previous Version | Graphics & Text | Print | Product List | Glossary On
Versions: 1 2 3 4 5 6 7 8 9 10 11 12 13 14 15 16 17 18 19 20 21 22 23 24 25 26 27 28 29 30 31 32 33 34 35 36 37 38 39 40 41 42 43 44 45 46 47 48 49
000
ASUS43 KDMX 161007
RWRIA

WEATHER ROUNDUP FOR IOWA
NATIONAL WEATHER SERVICE DES MOINES IA
500 AM CDT TUE SEP 16 2014

NOTE: "FAIR" INDICATES FEW OR NO CLOUDS BELOW 12,000 FEET WITH NO
SIGNIFICANT WEATHER AND/OR OBSTRUCTIONS TO VISIBILITY.

* - THESE STATIONS ARE NOT NWS STATIONS...THUS NOT UNDER NWS
QUALITY CONTROL.  THEY ALSO DO NOT REPORT WEATHER SUCH
AS PRECIPITATION OR FOG.

IAZ001>003-012>014-020>022-031>034-043>046-161100-
   NORTHWEST IOWA

CITY           SKY/WX    TMP DP  RH WIND       PRES   REMARKS
CARROLL *      CLEAR     36  36 100 CALM      30.25F
CHEROKEE *     CLEAR     37  37 100 CALM      30.24F
DENISON *      CLEAR     37  37 100 CALM      30.24S
LE MARS *        N/A     37  37 100 CALM      30.23F
ORANGE CITY *  CLEAR     43  37  81 S3        30.22F
SHELDON *      CLEAR     36  36 100 CALM      30.21F
SIOUX CITY     PTCLDY    39  39 100 SE6       30.23F FOG     WCI  35
SPENCER        CLEAR     37  35  92 CALM      30.23F
STORM LAKE *   CLEAR     43  43 100 SW6       30.24S
$$

IAZ055>058-069>071-079>083-090>094-161100-
   SOUTHWEST IOWA

CITY           SKY/WX    TMP DP  RH WIND       PRES   REMARKS
ATLANTIC *     FOG       39  39 100 CALM      30.26S VSB 0
AUDUBON *      CLEAR     39  37  93 CALM      30.26F
CLARINDA *     FOG       41  41 100 CALM      30.28F VSB 1/4
COUNCIL BLFS * CLEAR     46  46 100 SW3       30.25S
CRESTON *      CLEAR     43  43 100 N3        30.26F
HARLAN  *      FOG       37  37 100 CALM      30.29S VSB 3/4
LAMONI         CLEAR     46  43  89 N3        30.26S
SHENANDOAH *   FOG       39  39 100 NE3       30.28S VSB 1/2
$$

IAZ047>049-059>061-072>074-084-161100-
   CENTRAL IOWA

CITY           SKY/WX    TMP DP  RH WIND       PRES   REMARKS
AMES           CLEAR     39  38  96 CALM      30.25F
ANKENY *       FOG       39  39 100 CALM      30.25F VSB 0
CHARITON *     PTCLDY    45  45 100 NW5       30.26S
DES MOINES     CLEAR     47  43  86 CALM      30.26S
GRINNELL*      CLEAR     41  39  93 NW5       30.25S
KNOXVILLE *    CLEAR     41  41 100 SW3       30.24S
MARSHALLTOWN   CLEAR     38  37  97 CALM      30.25S
PELLA *        CLEAR     43  41  93 CALM      30.26S
PERRY *          N/A     39  39 100 W3        30.25F
$$

IAZ004>006-015-016-023>025-035-036-161100-
   NORTH CENTRAL IOWA

CITY           SKY/WX    TMP DP  RH WIND       PRES   REMARKS
ALGONA *       CLEAR     43  39  87 SW6       30.24F
CLARION *        N/A     36  36 100 S3        30.24F
ESTHERVILLE    CLEAR     37  36  96 S3        30.22F
FORT DODGE *   PTCLDY    37  36  93 CALM      30.25S
MASON CITY     CLEAR     38  37  97 CALM      30.24F
FOREST CITY *  FOG       36  36 100 CALM      30.23F VSB 3/4
IOWA FALLS *     N/A     39  37  93 CALM      30.25F
$$

IAZ007>011-017>019-026>030-037>042-050>054-066-161100-
   NORTHEAST IOWA

CITY           SKY/WX    TMP DP  RH WIND       PRES   REMARKS
CEDAR RAPIDS   CLEAR     41  41 100 NW8       30.23S
CHARLES CITY * CLEAR     37  37 100 CALM      30.24S
CLINTON *      CLEAR     39  37  93 NW3       30.25S
DECORAH *      CLEAR     39  39 100 CALM      30.22S
DUBUQUE        CLEAR     41  40  96 CALM      30.23S
MONTICELLO *   FOG       37  37 100 CALM      30.23S VSB 1/2
OELWEIN *      CLEAR     41  39  93 CALM      30.24S
WATERLOO       CLEAR     36  34  92 CALM      30.24S
$$

IAZ064-065-067-068-078-161100-
   EAST CENTRAL IOWA

CITY           SKY/WX    TMP DP  RH WIND       PRES   REMARKS
DAVENPORT      CLEAR     39  36  89 NW6       30.23S WCI  35
IOWA CITY      CLEAR     43  42  97 CALM      30.25S
MT. PLEASANT * FOG       43  41  93 CALM      30.24S VSB 1/2
MUSCATINE *    CLEAR     43  41  93 CALM      30.24S
QUAD CITIES    CLEAR     43  41  93 CALM      30.23S
$$

IAZ062-063-075>077-085>089-095>099-161100-
   SOUTHEAST IOWA

CITY           SKY/WX    TMP DP  RH WIND       PRES   REMARKS
BURLINGTON     CLEAR     44  43  96 N3        30.23S
FAIRFIELD *    CLEAR     41  41 100 W5        30.25R FOG
FORT MADISON * CLEAR     46  46 100 W3        30.25R FOG
KEOKUK *       CLEAR     45  45 100 CALM      30.23S FOG
OSKALOOSA *      N/A     41  41 100 NW3       30.25S
CENTERVILLE *  CLEAR     43  43 100 NW3       30.27R
OTTUMWA        FOG       41  40  96 W3        30.25R VSB 1/2
WASHINGTON *   CLEAR     41  41 100 W3        30.24R
$$

ABBREVIATIONS USED IN REMARKS
   TC - TEMPERATURES IN CELSIUS
  WCI - WIND CHILL INDEX
   HX - HEAT INDEX
  VSB - VISIBILITY
$$




USA.gov is the U.S. government's official web portal to all federal, state and local government web resources and services.